Terminal Aerodrome Forecast
Issued by NWS

Home | Current Version | Previous Version | Graphics & Text | Print | Product List | Glossary On
Versions: 1 2 3 4 5 6 7 8 9 10 11 12
000
FTUS43 KMPX 210520
TAFRWF
TAF
KRWF 210520Z 2106/2206 20006KT P6SM SKC
     FM211000 26007KT P6SM SCT090
     FM211500 32012G18KT P6SM FEW100
     FM220000 33006KT P6SM SKC=

USA.gov is the U.S. government's official web portal to all federal, state and local government web resources and services.